This is the latest recevied weather packets stored in our database for station/object K9ABJ. If no packets are shown the sender has not sent any weather packets the latest 10 day(s).
| Time | Temp. | Humidity | Pressure | Rain* | Wind** | Luminosity | Snow |
|---|---|---|---|---|---|---|---|
| 1788525510 | 25° C | 92% | 1015.4 hPa | 0 mm | - | 92 W/m² | - |
| 1788525205 | 24.44° C | 94% | 1015.4 hPa | 0 mm | - | 110 W/m² | - |
| 1788524900 | 23.89° C | 94% | 1015.2 hPa | 0 mm | - | 93 W/m² | - |
| 1788524600 | 23.33° C | 95% | 1015.3 hPa | 0 mm | - | 76 W/m² | - |
| 1788524295 | 23.33° C | 95% | 1015.4 hPa | 0 mm | - | 66 W/m² | - |
| 1788523992 | 22.78° C | 95% | 1015.4 hPa | 0 mm | - | 56 W/m² | - |
| 1788523688 | 22.78° C | 95% | 1015.4 hPa | 0 mm | - | 48 W/m² | - |
| 1788523383 | 22.78° C | 95% | 1015.6 hPa | 0 mm | - | 42 W/m² | - |
| 1788523078 | 22.78° C | 95% | 1015.3 hPa | 0 mm | - | 43 W/m² | - |
| 1788522774 | 22.78° C | 95% | 1015.2 hPa | 0 mm | - | 35 W/m² | - |
| 1788522468 | 22.22° C | 95% | 1015.5 hPa | 0 mm | - | 24 W/m² | - |
| 1788522168 | 22.22° C | 95% | 1015.6 hPa | 0 mm | - | 17 W/m² | - |
| 1788521863 | 22.22° C | 95% | 1015.3 hPa | 0 mm | - | 12 W/m² | - |
| 1788521562 | 22.22° C | 95% | 1015.2 hPa | 0 mm | - | 10 W/m² | - |
| 1788521257 | 22.22° C | 95% | 1015 hPa | 0 mm | - | 6 W/m² | - |
| 1788520953 | 22.22° C | 95% | 1014.9 hPa | 0 mm | - | 4 W/m² | - |
| 1788520649 | 22.22° C | 95% | 1014.9 hPa | 0 mm | - | 2 W/m² | - |
| 1788520344 | 22.22° C | 95% | 1014.7 hPa | 0 mm | - | 0 W/m² | - |
| 1788520039 | 22.22° C | 95% | 1014.7 hPa | 0 mm | - | 0 W/m² | - |
| 1788519739 | 22.22° C | 95% | 1014.5 hPa | 0 mm | - | 0 W/m² | - |
| 1788519434 | 22.22° C | 95% | 1014.6 hPa | 0 mm | - | 0 W/m² | - |
| 1788519129 | 22.22° C | 95% | 1014.1 hPa | 0 mm | - | 0 W/m² | - |
| 1788518824 | 22.22° C | 95% | 1014.2 hPa | 0 mm | - | 0 W/m² | - |
| 1788518519 | 22.22° C | 95% | 1014.1 hPa | 0 mm | - | 0 W/m² | - |
| 1788518216 | 22.22° C | 95% | 1014 hPa | 0 mm | - | 0 W/m² | - |
* Rain latest hour (hover to see other rain measurements)
** Current wind speed in m/s (hover to see current wind gust speed)